Change the Weather History Date:

Thursday, October 25, 2012

  Actual Average (KHGR) Record (KHGR)
Temperature  
Mean Temperature 58 °F -  
Max Temperature 66 °F 59 °F 72 °F (2014)
Min Temperature 50 °F 41 °F 35 °F (2013)
Degree Days  
Heating Degree Days 7    
Growing Degree Days 8 (Base 50)    
Moisture  
Dew Point 57 °F    
Average Humidity 95    
Maximum Humidity 100    
Minimum Humidity 83    
Precipitation  
Precipitation 0.00 in - - ()
Sea Level Pressure  
Sea Level Pressure 30.20 in    
Wind  
Wind Speed 1 mph (ESE)    
Max Wind Speed 6 mph    
Max Gust Speed -    
Visibility 6 miles    
Events      
Averages and records for this station are not official NWS values.
T = Trace of Precipitation, MM = Missing Value Source: NWS Daily Summary

Daily Weather History Graph

Daily Weather History Graph

Search for Another Location

Airport or City:

Trip Planner

Search our weather history database for the weather conditions in past years. The results will help you decide how hot, cold, wet, or windy it might be!

Date:

Astronomy

Oct. 25, 2012 Rise Set
Actual Time 7:30 AM EDT 6:16 PM EDT
Civil Twilight 7:02 AM EDT 6:43 PM EDT
Nautical Twilight 6:31 AM EDT 7:14 PM EDT
Astronomical Twilight 6:00 AM EDT 7:46 PM EDT
Moon 4:00 PM EDT (10/25) 3:25 AM EDT (10/25)
Length of Visible Light 11h 40m
Length of Day
10h 45m
Waxing Gibbous, 84% of the Moon is Illuminated
Oct 25
Waxing Gibbous
Oct 29
Full
Nov 6
Last Quarter
Nov 13
New
Nov 20
First Quarter

Hourly Weather History & Observations

Time (EDT) Temp. Dew Point Humidity Pressure Visibility Wind Dir Wind Speed Gust Speed Precip Events Conditions
12:05 AM 60.8 °F 57.2 °F 88% 30.15 in 10.0 mi Calm Calm - N/A   Overcast
12:25 AM 60.8 °F 57.2 °F 88% 30.15 in 10.0 mi Calm Calm - N/A   Overcast
12:45 AM 60.8 °F 57.2 °F 88% 30.15 in 10.0 mi Calm Calm - N/A   Overcast
1:10 AM 59.0 °F 57.2 °F 94% 30.15 in 10.0 mi Calm Calm - N/A   Mostly Cloudy
1:30 AM 57.2 °F 55.4 °F 94% 30.16 in 10.0 mi Calm Calm - N/A   Mostly Cloudy
1:50 AM 57.2 °F 57.2 °F 100% 30.16 in 10.0 mi Calm Calm - N/A   Overcast
2:15 AM 57.2 °F 55.4 °F 94% 30.17 in 10.0 mi NNW 3.5 mph - N/A   Mostly Cloudy
2:35 AM 55.4 °F 53.6 °F 94% 30.17 in 10.0 mi Calm Calm - N/A   Clear
2:55 AM 55.4 °F 55.4 °F 100% 30.17 in 10.0 mi Calm Calm - N/A   Clear
3:15 AM 53.6 °F 53.6 °F 100% 30.17 in 10.0 mi Calm Calm - N/A   Clear
3:40 AM 53.6 °F 53.6 °F 100% 30.16 in 10.0 mi Calm Calm - N/A   Clear
4:00 AM 53.6 °F 53.6 °F 100% 30.16 in 10.0 mi Calm Calm - N/A   Clear
4:20 AM 53.6 °F 53.6 °F 100% 30.16 in 7.0 mi Calm Calm - N/A   Clear
4:40 AM 51.8 °F 51.8 °F 100% 30.16 in 3.0 mi Calm Calm - N/A   Clear
5:05 AM 51.8 °F 51.8 °F 100% 30.18 in 1.8 mi Calm Calm - N/A   Mist
5:25 AM 51.8 °F 51.8 °F 100% 30.18 in 5.0 mi Calm Calm - N/A   Scattered Clouds
5:45 AM 51.8 °F 51.8 °F 100% 30.19 in 5.0 mi Calm Calm - N/A   Clear
6:05 AM 50.0 °F 50.0 °F 100% 30.20 in 1.8 mi Calm Calm - N/A   Scattered Clouds
6:30 AM 51.8 °F 51.8 °F 100% 30.20 in 4.0 mi Calm Calm - N/A   Overcast
6:48 AM 53.6 °F 53.6 °F 100% 30.20 in 7.0 mi Calm Calm - N/A   Overcast
6:50 AM 53.6 °F 53.6 °F 100% 30.21 in 7.0 mi Calm Calm - N/A   Overcast
7:55 AM 57.2 °F 57.2 °F 100% 30.22 in 2.0 mi Calm Calm - N/A   Overcast
8:55 AM 60.8 °F 60.8 °F 100% 30.23 in 2.0 mi Calm Calm - N/A   Overcast
9:53 AM 60.8 °F 60.8 °F 100% 30.24 in 3.0 mi East 3.5 mph - N/A   Overcast
10:50 AM 62.6 °F 60.8 °F 94% 30.25 in 3.0 mi Calm Calm - N/A   Overcast
11:52 AM 64.4 °F 60.8 °F 88% 30.24 in 3.0 mi SE 3.5 mph - N/A   Overcast
12:55 PM 64.4 °F 60.8 °F 88% 30.23 in 3.0 mi SSE 3.5 mph - N/A   Overcast
1:56 PM 66.2 °F 60.8 °F 83% 30.23 in 5.0 mi Calm Calm - N/A   Haze
2:45 PM 66.2 °F 60.8 °F 83% 30.21 in 5.0 mi Variable 4.6 mph - N/A   Overcast
3:51 PM 66.2 °F 60.8 °F 83% 30.21 in 5.0 mi ESE 5.8 mph - N/A   Overcast
4:57 PM 66.2 °F 60.8 °F 83% 30.20 in 5.0 mi East 5.8 mph - N/A   Scattered Clouds
5:56 PM 64.4 °F 59.0 °F 83% 30.20 in 4.0 mi Calm Calm - N/A   Clear
6:19 PM 64.4 °F 59.0 °F 83% 30.21 in 5.0 mi ENE 4.6 mph - N/A   Mostly Cloudy
6:45 PM 62.6 °F 59.0 °F 88% 30.21 in 5.0 mi East 3.5 mph - N/A   Overcast
7:59 PM 59.0 °F 57.2 °F 94% 30.22 in 4.0 mi Calm Calm - N/A   Mostly Cloudy
9:00 PM 55.4 °F 55.4 °F 100% 30.22 in 3.0 mi Calm Calm - N/A   Overcast
9:20 PM 57.2 °F 57.2 °F 100% 30.22 in 3.0 mi Calm Calm - N/A   Overcast
9:40 PM 59.0 °F 59.0 °F 100% 30.22 in 3.0 mi Calm Calm - N/A   Overcast
10:25 PM 59.0 °F 59.0 °F 100% 30.21 in 4.0 mi Calm Calm - N/A   Overcast
11:10 PM 60.8 °F 59.0 °F 94% 30.21 in 7.0 mi SE 5.8 mph - N/A   Overcast
11:30 PM 60.8 °F 59.0 °F 94% 30.21 in 7.0 mi SE 3.5 mph - N/A   Overcast
11:50 PM 60.8 °F 59.0 °F 94% 30.21 in 7.0 mi Calm Calm - N/A   Overcast